TimeCDT,TemperatureF,Dew PointF,Humidity,Sea Level PressureIn,VisibilityMPH,Wind Direction,Wind SpeedMPH,Gust SpeedMPH,PrecipitationIn,Events,Conditions,WindDirDegrees,DateUTC
12:02 AM,61.0,48.0,62,29.82,10.0,SSE,19.6,-,N/A,Thunderstorm,Thunderstorm,150,2013-10-15 05:02:00
12:31 AM,57.9,52.0,81,29.85,1.5,SSW,12.7,-,0.07,Rain-Thunderstorm,Heavy Thunderstorms and Rain,200,2013-10-15 05:31:00
12:40 AM,57.9,53.1,84,29.87,1.5,WSW,11.5,-,0.18,Rain-Thunderstorm,Heavy Thunderstorms and Rain,250,2013-10-15 05:40:00
12:54 AM,57.9,54.0,87,29.84,3.0,South,10.4,19.6,0.42,Rain,Heavy Rain,190,2013-10-15 05:54:00
1:48 AM,57.2,55.4,94,29.80,8.0,SSE,20.7,27.6,0.06,,Overcast,160,2013-10-15 06:48:00
1:54 AM,57.9,55.0,90,29.79,9.0,SSE,19.6,27.6,0.06,,Overcast,160,2013-10-15 06:54:00
2:04 AM,59.0,55.9,90,29.79,10.0,SSE,23.0,-,N/A,,Overcast,160,2013-10-15 07:04:00
2:54 AM,60.1,57.0,90,29.79,10.0,South,16.1,29.9,0.00,Rain,Light Rain,190,2013-10-15 07:54:00
3:54 AM,61.0,57.0,87,29.77,10.0,South,16.1,-,0.00,,Overcast,190,2013-10-15 08:54:00
4:54 AM,57.9,52.0,81,29.79,10.0,West,24.2,-,0.00,,Overcast,260,2013-10-15 09:54:00
4:58 AM,57.9,51.1,78,29.80,10.0,West,19.6,-,N/A,,Overcast,260,2013-10-15 09:58:00
5:14 AM,55.9,50.0,80,29.81,10.0,West,18.4,28.8,N/A,,Overcast,260,2013-10-15 10:14:00
5:54 AM,55.0,48.0,77,29.82,10.0,West,12.7,-,N/A,,Overcast,260,2013-10-15 10:54:00
6:54 AM,54.0,46.0,75,29.83,10.0,WSW,12.7,-,N/A,,Overcast,240,2013-10-15 11:54:00
7:54 AM,52.0,43.0,71,29.85,10.0,WSW,17.3,-,N/A,,Overcast,250,2013-10-15 12:54:00
8:54 AM,51.1,42.1,71,29.86,10.0,West,18.4,-,N/A,,Overcast,260,2013-10-15 13:54:00
9:54 AM,51.1,39.9,66,29.87,10.0,West,18.4,28.8,N/A,,Overcast,270,2013-10-15 14:54:00
10:54 AM,51.1,39.9,66,29.88,10.0,West,20.7,-,N/A,,Overcast,260,2013-10-15 15:54:00
11:54 AM,52.0,39.9,63,29.88,10.0,West,17.3,-,N/A,,Overcast,260,2013-10-15 16:54:00
12:54 PM,52.0,39.9,63,29.89,10.0,West,17.3,-,N/A,,Overcast,270,2013-10-15 17:54:00
1:54 PM,52.0,39.9,63,29.88,10.0,West,18.4,26.5,N/A,,Overcast,270,2013-10-15 18:54:00
2:54 PM,52.0,39.9,63,29.87,10.0,West,24.2,-,N/A,,Overcast,260,2013-10-15 19:54:00
3:54 PM,52.0,39.9,63,29.88,10.0,West,23.0,32.2,N/A,,Overcast,260,2013-10-15 20:54:00
4:54 PM,51.1,39.9,66,29.90,10.0,West,18.4,32.2,N/A,,Overcast,260,2013-10-15 21:54:00
5:54 PM,51.1,41.0,68,29.91,10.0,West,17.3,27.6,N/A,,Overcast,260,2013-10-15 22:54:00
6:54 PM,50.0,41.0,71,29.92,10.0,West,20.7,-,N/A,,Overcast,270,2013-10-15 23:54:00
7:54 PM,50.0,42.1,74,29.94,10.0,West,18.4,-,N/A,,Overcast,270,2013-10-16 00:54:00
8:54 PM,50.0,42.1,74,29.95,10.0,West,12.7,-,N/A,,Overcast,270,2013-10-16 01:54:00
9:54 PM,48.9,43.0,80,29.96,10.0,West,17.3,-,0.00,,Light Drizzle,280,2013-10-16 02:54:00
10:54 PM,48.0,43.0,83,29.96,10.0,West,18.4,24.2,0.00,,Light Drizzle,280,2013-10-16 03:54:00
11:29 PM,48.0,43.0,83,29.96,10.0,West,12.7,-,0.00,,Light Drizzle,280,2013-10-16 04:29:00
11:51 PM,48.2,42.8,82,29.96,10.0,West,12.7,-,0.00,,Overcast,280,2013-10-16 04:51:00
11:54 PM,48.0,43.0,83,29.96,10.0,West,12.7,-,0.00,,Overcast,280,2013-10-16 04:54:00